DMSP 5D-2 F13 DEB, 40475

Orbit data source: Space-Track

DMSP 5D-2 F13 DEB, 40475 is space debris in SSO originally from a launch on Fri, 24 Mar 1995 UTC launched from the Air Force Western Test Range (AFWTR). Debris objects in space refer to the collection of defunct objects orbiting the Earth. Examples of debris include non-operational satellites, rocket bodies, and fragments generated from explosions, collisions, or faulty payload assembly.

Loading next visibility...
DMSP 5D-2 F13 DEB details
Identifier
40475, 1995-015BT
Orbit
SSO
Last TLE update2 months ago
Origin
Flag of USUSAF SMC (US)
ManufacturerUnknown
MissionSpacecraft
Bus & MotorUnknown
MassUnknown
Launch date (UTC)
1995-03-24 (30 years ago)
Launch vehicleUnknown
Launch site
Air Force Western Test Range (AFWTR)
Object type
Payload
Rocket body
Debris
Shape & HBRUnknown
Radar Cross SectionSmall (<0.1 m²)

Expand to show TLE details & history

TLE from 2 months ago
0 DMSP 5D-2 F13 DEB
1 40475U 95015BT  24314.82187157  .00132684  00000-0  42294-1 0  9999
2 40475  98.9540 326.6159 0034606 264.6181  95.1056 14.38496530498499
Epoch: 2024-11-09T19:43Z
Definitive object data (Epoch: 2024-11-09T19:43:29.703Z)
Latitude-0.00007°
Longitude-18.72818°
Altitude768.687 km
Speed7.469 km/s
True Right ascension21h 46m 27s
True Declination0° 00' 00"
Sunlit
Object was in daylight at TLE epoch
Visualization TLE readout
Latitude13.63886°
Longitude-147.46322°
Altitude702.317 km
Speed7.515 km/s
Apparent Right ascension16h 13m 01s
Apparent Declination-26° 10' 05"
Sunlit
Object is in daylight
Visualization observer readout
Local Sidereal Time10:09:37
Azimuth110.174° ESE
Elevation-17.049°
Doppler factor1
Orbital elements
Apogee altitude785.32 km
Perigee altitude735.912 km
Semi-major axis7,138.753 km
Eccentricity0.0034606
Inclination98.954°
RAAN326.6159°
Arg. of periapsis264.6181°
True anomaly95.50043°
Mean anomaly95.1056°
Eccentric anomaly95.30303°
Mean motion3.5984 °/min
BSTAR0.042294
Orbital period100.04 mins
Loading maneuver chart data...

DMSP 5D-2 F13 DEB Visibility forecast

Observer location: undefined°, undefined

Span
Click to sort rows by Start time (UTC) header in descending order
Start Az.
Max El. time (UTC)
Max El. Az.
Max El.
End time (UTC)
End Az.
8 mins2024-12-26 13:55:23.244Z20.107° NNE2024-12-26 13:59:23.244Z81.508° E42.452°2024-12-26 14:03:23.244Z183.993° SSW
8 mins2024-12-27 01:03:23.244Z159.993° S2024-12-27 01:06:23.244Z128.892° SE44.01°2024-12-27 01:11:23.244Z348.361° N
|